Time,TemperatureF,DewpointF,PressureIn,WindDirection,WindDirectionDegrees,WindSpeedMPH,WindSpeedGustMPH,Humidity,HourlyPrecipIn,Conditions,Clouds,dailyrainin,SoftwareType,DateUTC
2013-01-24 00:00:00,27.0,-99.9,-100.00,SE,135,0.0,0.0,-999,-99.99,,,0.00,,2013-01-24 08:00:00,
2013-01-24 00:53:00,27.0,-99.9,-100.00,SE,135,0.0,0.0,-999,-99.99,,,0.00,,2013-01-24 08:53:00,
2013-01-24 01:00:00,27.0,-99.9,-100.00,ESE,113,0.0,0.0,-999,-99.99,,,-99.99,,2013-01-24 09:00:00,
2013-01-24 01:54:00,27.0,-99.9,-100.00,ESE,113,0.0,0.0,-999,-99.99,,,-99.99,,2013-01-24 09:54:00,
2013-01-24 02:00:00,27.0,-99.9,-100.00,SE,145,0.0,0.0,-999,-99.99,,,0.00,,2013-01-24 10:00:00,
2013-01-24 02:53:00,27.0,-99.9,-100.00,SE,145,0.0,0.0,-999,-99.99,,,0.00,,2013-01-24 10:53:00,
2013-01-24 03:00:00,27.0,-99.9,-100.00,ESE,110,0.0,0.0,-999,-99.99,,,0.00,,2013-01-24 11:00:00,
2013-01-24 03:53:00,27.0,-99.9,-100.00,ESE,110,0.0,0.0,-999,-99.99,,,0.00,,2013-01-24 11:53:00,
2013-01-24 04:00:00,26.0,-99.9,-100.00,ENE,57,0.0,0.0,-999,-99.99,,,0.00,,2013-01-24 12:00:00,
2013-01-24 04:53:00,26.0,-99.9,-100.00,ENE,57,0.0,0.0,-999,-99.99,,,0.00,,2013-01-24 12:53:00,
2013-01-24 05:00:00,26.0,-99.9,-100.00,ESE,115,0.0,0.0,-999,-99.99,,,0.00,,2013-01-24 13:00:00,
2013-01-24 05:53:00,26.0,-99.9,-100.00,ESE,115,0.0,0.0,-999,-99.99,,,0.00,,2013-01-24 13:53:00,
2013-01-24 06:00:00,25.0,-99.9,-100.00,SE,141,0.0,0.0,-999,-99.99,,,0.00,,2013-01-24 14:00:00,
2013-01-24 06:54:00,25.0,-99.9,-100.00,SE,141,0.0,0.0,-999,-99.99,,,0.00,,2013-01-24 14:54:00,
2013-01-24 07:00:00,25.0,-99.9,-100.00,ESE,109,0.0,0.0,-999,-99.99,,,0.00,,2013-01-24 15:00:00,
2013-01-24 07:53:00,25.0,-99.9,-100.00,ESE,109,0.0,0.0,-999,-99.99,,,0.00,,2013-01-24 15:53:00,
2013-01-24 08:00:00,25.0,-99.9,-100.00,SE,127,0.0,0.0,-999,-99.99,,,0.00,,2013-01-24 16:00:00,
2013-01-24 09:00:00,27.0,-99.9,-100.00,ESE,123,0.0,0.0,-999,-99.99,,,-99.99,,2013-01-24 17:00:00,
2013-01-24 09:53:00,27.0,-99.9,-100.00,ESE,123,0.0,0.0,-999,-99.99,,,-99.99,,2013-01-24 17:53:00,
2013-01-24 10:00:00,25.0,-99.9,-100.00,ESE,105,0.0,0.0,-999,-99.99,,,-99.99,,2013-01-24 18:00:00,
2013-01-24 10:54:00,25.0,-99.9,-100.00,ESE,105,0.0,0.0,-999,-99.99,,,-99.99,,2013-01-24 18:54:00,
2013-01-24 11:00:00,28.0,-99.9,-100.00,NE,40,0.0,0.0,-999,-99.99,,,0.00,,2013-01-24 19:00:00,
2013-01-24 11:53:00,28.0,-99.9,-100.00,NE,40,0.0,0.0,-999,-99.99,,,0.00,,2013-01-24 19:53:00,
2013-01-24 12:00:00,31.0,-99.9,-100.00,ESE,116,0.0,0.0,-999,-99.99,,,0.00,,2013-01-24 20:00:00,
2013-01-24 12:53:00,31.0,-99.9,-100.00,ESE,116,0.0,0.0,-999,-99.99,,,0.00,,2013-01-24 20:53:00,
2013-01-24 13:00:00,33.0,-99.9,-100.00,East,96,2.0,6.0,-999,-99.99,,,0.00,,2013-01-24 21:00:00,
2013-01-24 13:53:00,33.0,-99.9,-100.00,East,96,2.0,6.0,-999,-99.99,,,0.00,,2013-01-24 21:53:00,
2013-01-24 14:00:00,31.0,-99.9,-100.00,ESE,118,3.0,6.0,-999,-99.99,,,0.00,,2013-01-24 22:00:00,
2013-01-24 14:53:00,31.0,-99.9,-100.00,ESE,118,3.0,6.0,-999,-99.99,,,0.00,,2013-01-24 22:53:00,
2013-01-24 15:00:00,31.0,-99.9,-100.00,East,91,3.0,5.0,-999,-99.99,,,0.00,,2013-01-24 23:00:00,
2013-01-24 15:53:00,31.0,-99.9,-100.00,East,91,3.0,5.0,-999,-99.99,,,0.00,,2013-01-24 23:53:00,
2013-01-24 16:00:00,31.0,-99.9,-100.00,North,-999,-999.0,-999.0,-999,-99.99,,,0.00,,2013-01-25 00:00:00,
2013-01-24 16:53:00,31.0,-99.9,-100.00,North,-999,-999.0,-999.0,-999,-99.99,,,0.00,,2013-01-25 00:53:00,
2013-01-24 17:00:00,32.0,-99.9,-100.00,NE,51,3.0,6.0,-999,-99.99,,,0.00,,2013-01-25 01:00:00,
2013-01-24 17:52:00,32.0,-99.9,-100.00,NE,51,3.0,6.0,-999,-99.99,,,0.00,,2013-01-25 01:52:00,
2013-01-24 18:00:00,31.0,-99.9,-100.00,ENE,73,3.0,4.0,-999,-99.99,,,0.00,,2013-01-25 02:00:00,
2013-01-24 18:53:00,31.0,-99.9,-100.00,ENE,73,3.0,4.0,-999,-99.99,,,0.00,,2013-01-25 02:53:00,
2013-01-24 19:00:00,31.0,-99.9,-100.00,East,88,3.0,5.0,-999,-99.99,,,0.00,,2013-01-25 03:00:00,
2013-01-24 19:53:00,31.0,-99.9,-100.00,East,88,3.0,5.0,-999,-99.99,,,0.00,,2013-01-25 03:53:00,
2013-01-24 20:00:00,31.0,-99.9,-100.00,East,92,3.0,5.0,-999,-99.99,,,0.00,,2013-01-25 04:00:00,
2013-01-24 20:52:00,31.0,-99.9,-100.00,East,92,3.0,5.0,-999,-99.99,,,0.00,,2013-01-25 04:52:00,
2013-01-24 21:00:00,31.0,-99.9,-100.00,ESE,102,4.0,6.0,-999,-99.99,,,0.00,,2013-01-25 05:00:00,
2013-01-24 21:52:00,31.0,-99.9,-100.00,ESE,102,4.0,6.0,-999,-99.99,,,0.00,,2013-01-25 05:52:00,
2013-01-24 22:00:00,31.0,-99.9,-100.00,East,90,2.0,4.0,-999,-99.99,,,0.00,,2013-01-25 06:00:00,
2013-01-24 22:52:00,31.0,-99.9,-100.00,East,90,2.0,4.0,-999,-99.99,,,0.00,,2013-01-25 06:52:00,
2013-01-24 23:00:00,32.0,-99.9,-100.00,ESE,116,2.0,3.0,-999,-99.99,,,0.00,,2013-01-25 07:00:00,
2013-01-24 23:52:00,32.0,-99.9,-100.00,ESE,116,2.0,3.0,-999,-99.99,,,0.00,,2013-01-25 07:52:00,